EJM721 KTVL-KTNP

Flight info

Callsign EJM721
Flight time 1h 10m
Altitude 39000
Route CZQ EHF PMD YUCCA TNP
Aircraft C750/M-SBDE3FGHRWXY/S

Departure

Time 2026-05-04 21:44
Airport Lake Tahoe Airport (KTVL)

Arrival

Time 2026-05-04 22:54
Airport Twentynine Palms Airport (KTNP)
Time Latitude Longitude Altitude Speed Heading
2026-05-04 21:30 38.89427 -119.99682 6266 ft 0 kts 284°
2026-05-04 21:39 38.89427 -119.99691 6266 ft 2 kts 262°
2026-05-04 21:39 38.89408 -119.99716 6266 ft 5 kts 195°
2026-05-04 21:40 38.89388 -119.99723 6266 ft 2 kts 197°
2026-05-04 21:40 38.89342 -119.99738 6266 ft 10 kts 192°
2026-05-04 21:40 38.89282 -119.99743 6266 ft 10 kts 190°
2026-05-04 21:40 38.89235 -119.99710 6266 ft 7 kts 104°
2026-05-04 21:41 38.89205 -119.99682 6264 ft 4 kts 205°
2026-05-04 21:41 38.89129 -119.99714 6264 ft 17 kts 192°
2026-05-04 21:41 38.89015 -119.99748 6266 ft 14 kts 193°
2026-05-04 21:41 38.88925 -119.99773 6265 ft 15 kts 191°
2026-05-04 21:42 38.88805 -119.99810 6263 ft 20 kts 194°
2026-05-04 21:42 38.88690 -119.99844 6262 ft 17 kts 192°
2026-05-04 21:42 38.88563 -119.99878 6261 ft 21 kts 193°
2026-05-04 21:42 38.88427 -119.99919 6263 ft 17 kts 192°
2026-05-04 21:43 38.88333 -119.99948 6263 ft 11 kts 194°
2026-05-04 21:43 38.88270 -119.99930 6262 ft 9 kts 117°
2026-05-04 21:43 38.88274 -119.99864 6263 ft 7 kts 31°
2026-05-04 21:43 38.88307 -119.99853 6263 ft 4 kts 12°
2026-05-04 21:44 38.88576 -119.99774 6264 ft 90 kts 13°
2026-05-04 21:44 38.89436 -119.99526 6340 ft 146 kts 13°
2026-05-04 21:44 38.90433 -119.99206 6941 ft 156 kts 13°
2026-05-04 21:44 38.91553 -119.98923 7607 ft 167 kts
2026-05-04 21:45 38.92775 -119.98679 8081 ft 191 kts
2026-05-04 21:45 38.94189 -119.98390 8408 ft 220 kts 10°
2026-05-04 21:45 38.95817 -119.98052 8817 ft 252 kts 10°
2026-05-04 21:45 38.97614 -119.97676 9304 ft 277 kts 11°
2026-05-04 21:46 38.99581 -119.97865 10080 ft 288 kts 342°
2026-05-04 21:46 39.01275 -119.99378 10556 ft 313 kts 316°
2026-05-04 21:46 39.02614 -120.01694 10714 ft 341 kts 304°
2026-05-04 21:46 39.03839 -120.04436 10965 ft 361 kts 302°
2026-05-04 21:47 39.05159 -120.07202 11726 ft 363 kts 304°
2026-05-04 21:47 39.06556 -120.09951 12359 ft 370 kts 307°
2026-05-04 21:47 39.08048 -120.12665 13019 ft 374 kts 309°
2026-05-04 21:47 39.09600 -120.15389 13711 ft 379 kts 310°
2026-05-04 21:48 39.11196 -120.18114 14351 ft 383 kts 311°
2026-05-04 21:48 39.12807 -120.20867 14959 ft 387 kts 311°
2026-05-04 21:48 39.14107 -120.23961 15419 ft 402 kts 292°
2026-05-04 21:48 39.14646 -120.27517 16079 ft 409 kts 276°
2026-05-04 21:49 39.14408 -120.31134 16719 ft 416 kts 258°
2026-05-04 21:49 39.13368 -120.34628 17322 ft 421 kts 240°
2026-05-04 21:49 39.11582 -120.37613 18005 ft 422 kts 222°
2026-05-04 21:49 39.09204 -120.39815 18611 ft 420 kts 204°
2026-05-04 21:50 39.06471 -120.41034 19248 ft 415 kts 187°
2026-05-04 21:50 39.03611 -120.41211 19864 ft 409 kts 170°
2026-05-04 21:50 39.00823 -120.40534 20559 ft 407 kts 162°
2026-05-04 21:50 38.98051 -120.39719 21220 ft 411 kts 162°
2026-05-04 21:51 38.95246 -120.38898 21869 ft 416 kts 162°
2026-05-04 21:51 38.92410 -120.38096 22515 ft 420 kts 162°
2026-05-04 21:51 38.89533 -120.37287 23179 ft 424 kts 162°
2026-05-04 21:51 38.86634 -120.36457 23754 ft 429 kts 162°
2026-05-04 21:52 38.84695 -120.35898 24115 ft 431 kts 162°
2026-05-04 21:52 38.80751 -120.34775 24884 ft 435 kts 162°
2026-05-04 21:52 38.77816 -120.33945 25427 ft 439 kts 162°
2026-05-04 21:52 38.74830 -120.33096 25994 ft 441 kts 162°
2026-05-04 21:53 38.71818 -120.32239 26579 ft 444 kts 162°
2026-05-04 21:53 38.69813 -120.31670 26962 ft 446 kts 162°
2026-05-04 21:53 38.66770 -120.30808 27576 ft 449 kts 162°
2026-05-04 21:53 38.63711 -120.29942 28162 ft 452 kts 162°
2026-05-04 21:54 38.60634 -120.29070 28738 ft 455 kts 162°
2026-05-04 21:54 38.57517 -120.28188 29306 ft 458 kts 162°
2026-05-04 21:54 38.54390 -120.27306 29858 ft 461 kts 162°
2026-05-04 21:54 38.51249 -120.26420 30338 ft 465 kts 163°
2026-05-04 21:55 38.48110 -120.25534 30766 ft 469 kts 163°
2026-05-04 21:55 38.44919 -120.24635 31304 ft 469 kts 164°
2026-05-04 21:55 38.41735 -120.23741 31977 ft 467 kts 165°
2026-05-04 21:55 38.38556 -120.22848 32601 ft 467 kts 165°
2026-05-04 21:56 38.35379 -120.21953 33233 ft 466 kts 166°
2026-05-04 21:56 38.32219 -120.21065 33899 ft 465 kts 166°
2026-05-04 21:56 38.29061 -120.20181 34526 ft 462 kts 167°
2026-05-04 21:56 38.25931 -120.19304 35173 ft 459 kts 168°
2026-05-04 21:57 38.22810 -120.18430 35723 ft 458 kts 168°
2026-05-04 21:57 38.19686 -120.17555 36312 ft 456 kts 168°
2026-05-04 21:57 38.16634 -120.16702 36933 ft 454 kts 169°
2026-05-04 21:57 38.13552 -120.15842 37597 ft 451 kts 169°
2026-05-04 21:58 38.10497 -120.14989 38268 ft 448 kts 170°
2026-05-04 21:58 38.07455 -120.14141 38879 ft 444 kts 170°
2026-05-04 21:58 38.04413 -120.13295 39022 ft 452 kts 170°
2026-05-04 21:58 38.01298 -120.12433 39017 ft 464 kts 171°
2026-05-04 21:59 37.98102 -120.11544 39024 ft 475 kts 171°
2026-05-04 21:59 37.91520 -120.09712 39039 ft 492 kts 171°
2026-05-04 22:00 37.84810 -120.07854 39031 ft 501 kts 171°
2026-05-04 22:00 37.77988 -120.05963 39029 ft 500 kts 171°
2026-05-04 22:01 37.71188 -120.04088 39034 ft 499 kts 171°
2026-05-04 22:01 37.64413 -120.02218 39024 ft 497 kts 171°
2026-05-04 22:02 37.57662 -120.00363 39023 ft 495 kts 171°
2026-05-04 22:02 37.50925 -119.98512 39023 ft 494 kts 171°
2026-05-04 22:03 37.44206 -119.96671 39029 ft 493 kts 172°
2026-05-04 22:03 37.37544 -119.94849 39026 ft 491 kts 172°
2026-05-04 22:04 37.30865 -119.93025 39024 ft 491 kts 172°
2026-05-04 22:04 37.24285 -119.91227 39032 ft 480 kts 172°
2026-05-04 22:05 37.17691 -119.89442 39049 ft 487 kts 172°
2026-05-04 22:05 37.11061 -119.87634 39061 ft 488 kts 172°
2026-05-04 22:06 37.04426 -119.85839 39055 ft 487 kts 172°
2026-05-04 22:06 36.97842 -119.84055 39054 ft 487 kts 172°
2026-05-04 22:07 36.91221 -119.82267 39042 ft 485 kts 173°
2026-05-04 22:07 36.84752 -119.79595 39049 ft 494 kts 162°
2026-05-04 22:08 36.78418 -119.76280 39063 ft 493 kts 163°
2026-05-04 22:08 36.72076 -119.72986 39063 ft 493 kts 163°
2026-05-04 22:09 36.65741 -119.69683 39055 ft 493 kts 163°
2026-05-04 22:09 36.59397 -119.66397 39048 ft 493 kts 163°
2026-05-04 22:10 36.53067 -119.63111 39040 ft 493 kts 163°
2026-05-04 22:10 36.46724 -119.59834 39047 ft 493 kts 163°
2026-05-04 22:11 36.40380 -119.56555 39048 ft 493 kts 163°
2026-05-04 22:11 36.34068 -119.53304 39053 ft 494 kts 164°
2026-05-04 22:12 36.27730 -119.50042 39045 ft 493 kts 164°
2026-05-04 22:12 36.21372 -119.46777 39046 ft 494 kts 164°
2026-05-04 22:13 36.15030 -119.43524 39046 ft 494 kts 164°
2026-05-04 22:13 36.08662 -119.40266 39041 ft 495 kts 164°
2026-05-04 22:14 36.02298 -119.37014 39041 ft 495 kts 164°
2026-05-04 22:14 35.95947 -119.33775 39044 ft 496 kts 164°
2026-05-04 22:15 35.89565 -119.30525 39023 ft 496 kts 165°
2026-05-04 22:15 35.83175 -119.27279 39025 ft 497 kts 165°
2026-05-04 22:16 35.76766 -119.24025 39026 ft 497 kts 165°
2026-05-04 22:16 35.70397 -119.20802 39027 ft 498 kts 165°
2026-05-04 22:17 35.63989 -119.17560 39022 ft 498 kts 165°
2026-05-04 22:17 35.57565 -119.14319 39003 ft 499 kts 165°
2026-05-04 22:18 35.51167 -119.10932 38982 ft 506 kts 160°
2026-05-04 22:18 35.45342 -119.05871 39000 ft 523 kts 145°
2026-05-04 22:19 35.40194 -118.99563 39014 ft 527 kts 142°
2026-05-04 22:19 35.34996 -118.93222 39018 ft 527 kts 142°
2026-05-04 22:20 35.29814 -118.86864 39002 ft 527 kts 142°
2026-05-04 22:20 35.24607 -118.80520 38999 ft 527 kts 143°
2026-05-04 22:21 35.19408 -118.74177 39002 ft 527 kts 143°
2026-05-04 22:21 35.14196 -118.67845 39018 ft 528 kts 143°
2026-05-04 22:22 35.09008 -118.61543 39014 ft 528 kts 143°
2026-05-04 22:22 35.03775 -118.55208 39033 ft 530 kts 144°
2026-05-04 22:23 34.98534 -118.48866 39020 ft 529 kts 144°
2026-05-04 22:23 34.93298 -118.42548 39004 ft 529 kts 144°
2026-05-04 22:24 34.88088 -118.36272 38970 ft 529 kts 144°
2026-05-04 22:24 34.82838 -118.29962 38984 ft 530 kts 145°
2026-05-04 22:25 34.77590 -118.23661 38982 ft 530 kts 145°
2026-05-04 22:25 34.72320 -118.17351 38985 ft 531 kts 145°
2026-05-04 22:26 34.67057 -118.11044 39003 ft 532 kts 145°
2026-05-04 22:26 34.64611 -118.07587 39003 ft 546 kts 137°
2026-05-04 22:26 34.62508 -118.03687 39009 ft 558 kts 129°
2026-05-04 22:26 34.60815 -117.99461 39001 ft 570 kts 121°
2026-05-04 22:27 34.59333 -117.94990 39019 ft 572 kts 120°
2026-05-04 22:27 34.56330 -117.86043 39000 ft 572 kts 121°
2026-05-04 22:28 34.53316 -117.77092 38979 ft 573 kts 121°
2026-05-04 22:28 34.50300 -117.68142 38962 ft 573 kts 121°
2026-05-04 22:29 34.47286 -117.59247 38973 ft 574 kts 121°
2026-05-04 22:29 34.44254 -117.50301 38984 ft 574 kts 121°
2026-05-04 22:30 34.41249 -117.41444 38528 ft 553 kts 122°
2026-05-04 22:30 34.39805 -117.37190 37941 ft 536 kts 122°
2026-05-04 22:30 34.38397 -117.33079 37375 ft 521 kts 123°
2026-05-04 22:30 34.37019 -117.29077 36823 ft 511 kts 124°
2026-05-04 22:31 34.35660 -117.25124 36293 ft 507 kts 124°
2026-05-04 22:31 34.34306 -117.21179 35816 ft 509 kts 124°
2026-05-04 22:31 34.32955 -117.17249 35343 ft 514 kts 124°
2026-05-04 22:31 34.31575 -117.13233 34897 ft 519 kts 124°
2026-05-04 22:32 34.30188 -117.09196 34454 ft 522 kts 124°
2026-05-04 22:32 34.28792 -117.05136 33991 ft 523 kts 124°
2026-05-04 22:32 34.27390 -117.01072 33480 ft 524 kts 124°
2026-05-04 22:32 34.25983 -116.97007 32954 ft 525 kts 124°
2026-05-04 22:33 34.24571 -116.92929 32443 ft 527 kts 123°
2026-05-04 22:33 34.23150 -116.88823 31938 ft 529 kts 123°
2026-05-04 22:33 34.21723 -116.84706 31441 ft 531 kts 123°
2026-05-04 22:33 34.20292 -116.80582 30952 ft 532 kts 123°
2026-05-04 22:34 34.18856 -116.76452 30498 ft 534 kts 122°
2026-05-04 22:34 34.17413 -116.72310 30033 ft 532 kts 122°
2026-05-04 22:34 34.16006 -116.68261 29491 ft 527 kts 122°
2026-05-04 22:34 34.14592 -116.64201 28931 ft 521 kts 122°
2026-05-04 22:35 34.13191 -116.60197 28405 ft 514 kts 122°
2026-05-04 22:35 34.11802 -116.56236 27876 ft 510 kts 122°
2026-05-04 22:35 34.10696 -116.52138 27259 ft 521 kts 109°
2026-05-04 22:35 34.10391 -116.47759 26676 ft 525 kts 95°
2026-05-04 22:36 34.10447 -116.43386 26203 ft 521 kts 93°
2026-05-04 22:36 34.10548 -116.39026 25765 ft 516 kts 93°
2026-05-04 22:36 34.10616 -116.34701 25311 ft 512 kts 93°
2026-05-04 22:36 34.10645 -116.30477 24869 ft 508 kts 94°
2026-05-04 22:37 34.10689 -116.26182 24399 ft 502 kts 93°
2026-05-04 22:37 34.10762 -116.22209 23899 ft 460 kts 93°
2026-05-04 22:37 34.10823 -116.18449 23170 ft 431 kts 93°
2026-05-04 22:37 34.10853 -116.14964 22363 ft 405 kts 94°
2026-05-04 22:38 34.10872 -116.11586 21569 ft 401 kts 94°
2026-05-04 22:38 34.10909 -116.08244 20807 ft 395 kts 93°
2026-05-04 22:38 34.10956 -116.04954 20071 ft 389 kts 93°
2026-05-04 22:38 34.10994 -116.01714 19362 ft 383 kts 93°
2026-05-04 22:39 34.11022 -115.98530 18658 ft 376 kts 93°
2026-05-04 22:39 34.11041 -115.96406 18185 ft 372 kts 93°
2026-05-04 22:39 34.11241 -115.93331 17320 ft 366 kts 82°
2026-05-04 22:39 34.11506 -115.90359 16529 ft 357 kts 91°
2026-05-04 22:40 34.11484 -115.87389 15689 ft 350 kts 96°
2026-05-04 22:40 34.11397 -115.84566 14735 ft 320 kts 96°
2026-05-04 22:40 34.11316 -115.81998 13784 ft 295 kts 97°
2026-05-04 22:40 34.11242 -115.79578 12724 ft 283 kts 97°
2026-05-04 22:41 34.11167 -115.77242 11702 ft 281 kts 96°
2026-05-04 22:41 34.11079 -115.74846 10720 ft 286 kts 97°
2026-05-04 22:41 34.11403 -115.72510 9868 ft 285 kts 68°
2026-05-04 22:41 34.12694 -115.70830 9495 ft 267 kts 29°
2026-05-04 22:42 34.14417 -115.70437 9453 ft 250 kts 349°
2026-05-04 22:42 34.15947 -115.71377 9478 ft 254 kts 309°
2026-05-04 22:42 34.16788 -115.73190 9638 ft 246 kts 285°
2026-05-04 22:42 34.17310 -115.75172 9909 ft 248 kts 282°
2026-05-04 22:43 34.17813 -115.77159 10030 ft 246 kts 282°
2026-05-04 22:43 34.18321 -115.79168 9648 ft 252 kts 282°
2026-05-04 22:43 34.18823 -115.81161 9082 ft 251 kts 282°
2026-05-04 22:43 34.18960 -115.83190 8182 ft 239 kts 254°
2026-05-04 22:44 34.18133 -115.84830 7287 ft 227 kts 219°
2026-05-04 22:44 34.16684 -115.85467 6460 ft 224 kts 187°
2026-05-04 22:44 34.15137 -115.85545 5797 ft 223 kts 186°
2026-05-04 22:44 34.13604 -115.85721 5130 ft 219 kts 187°
2026-05-04 22:45 34.12094 -115.85922 4448 ft 219 kts 188°
2026-05-04 22:45 34.09336 -115.84998 3118 ft 203 kts 141°
2026-05-04 22:45 34.08750 -115.83476 2801 ft 212 kts 105°
2026-05-04 22:46 34.08523 -115.81702 2912 ft 212 kts 99°
2026-05-04 22:46 34.08438 -115.80015 3390 ft 192 kts 97°
2026-05-04 22:46 34.08466 -115.78423 3414 ft 192 kts 92°
2026-05-04 22:46 34.08563 -115.76787 3250 ft 199 kts 91°
2026-05-04 22:47 34.08639 -115.75115 3140 ft 198 kts 93°
2026-05-04 22:47 34.08714 -115.73491 3125 ft 190 kts 97°
2026-05-04 22:47 34.08676 -115.71897 3120 ft 192 kts 98°
2026-05-04 22:47 34.08617 -115.70248 3084 ft 200 kts 96°
2026-05-04 22:48 34.09126 -115.68605 2780 ft 219 kts 52°
2026-05-04 22:48 34.10249 -115.67376 2665 ft 217 kts 41°
2026-05-04 22:48 34.11428 -115.66244 2539 ft 217 kts 32°
2026-05-04 22:48 34.12872 -115.65809 2179 ft 220 kts 350°
2026-05-04 22:49 34.14122 -115.66612 2205 ft 195 kts 307°
2026-05-04 22:49 34.14491 -115.68046 2313 ft 175 kts 262°
2026-05-04 22:49 34.14392 -115.69479 2455 ft 171 kts 260°
2026-05-04 22:49 34.14213 -115.70910 2379 ft 172 kts 256°
2026-05-04 22:50 34.13967 -115.72306 2292 ft 171 kts 254°
2026-05-04 22:50 34.13683 -115.73712 2233 ft 172 kts 255°
2026-05-04 22:50 34.13479 -115.75145 2079 ft 181 kts 265°
2026-05-04 22:50 34.13555 -115.76605 2323 ft 164 kts 270°
2026-05-04 22:51 34.13596 -115.77942 2450 ft 159 kts 265°
2026-05-04 22:51 34.13613 -115.79304 2426 ft 163 kts 267°
2026-05-04 22:51 34.13559 -115.80677 2370 ft 166 kts 262°
2026-05-04 22:51 34.13430 -115.82097 2435 ft 177 kts 261°
2026-05-04 22:52 34.13428 -115.83531 2468 ft 159 kts 270°
2026-05-04 22:52 34.13477 -115.84823 2391 ft 156 kts 270°
2026-05-04 22:52 34.13503 -115.86130 2190 ft 153 kts 267°
2026-05-04 22:52 34.13502 -115.87416 2256 ft 152 kts 266°
2026-05-04 22:53 34.13480 -115.88696 2319 ft 147 kts 266°
2026-05-04 22:53 34.13464 -115.89852 2219 ft 134 kts 265°
2026-05-04 22:53 34.13459 -115.90928 2142 ft 122 kts 268°
2026-05-04 22:53 34.13444 -115.91931 2089 ft 121 kts 267°
2026-05-04 22:54 34.13446 -115.92943 2006 ft 119 kts 265°
2026-05-04 22:54 34.13442 -115.93905 1965 ft 105 kts 265°
2026-05-04 22:54 34.13440 -115.94521 1961 ft 40 kts 269°
2026-05-04 22:54 34.13438 -115.94669 1961 ft 11 kts 268°
2026-05-04 22:55 34.13446 -115.94736 1961 ft 4 kts 341°
2026-05-04 22:55 34.13486 -115.94737 1961 ft 9 kts 359°
2026-05-04 22:55 34.13521 -115.94717 1955 ft 5 kts 78°
2026-05-04 22:55 34.13523 -115.94679 1957 ft 6 kts 89°
2026-05-04 22:56 34.13521 -115.94586 1960 ft 15 kts 90°
2026-05-04 22:56 34.13521 -115.94466 1961 ft 11 kts 87°
2026-05-04 22:56 34.13542 -115.94449 1958 ft 3 kts 360°
2026-05-04 22:56 34.13552 -115.94449 1961 ft 0 kts 359°